www.pogodaiklimat.ru

Погода и климат >> Архив погоды >> Австралия >> Северная территория >> Аэропорт Грут-Айленд


ПОГОДА в Аэропорту Грут-Айленд

  • Прогноз погоды в Аэропорту Грут-Айленд
  • Монитор погоды в Аэропорту Грут-Айленд

АРХИВ ПОГОДЫ в Аэропорту Грут-Айленд

Время (UTC), дата Ветер
(напр.,м/с)
 
Видим.   Явления Облачность Т
(С)
Тd
(С)
f
(%)
Тe
(С)
Тes
(С)
Комфортность P
(гПа)
Po
(гПа)
Тmin
(С)
Tmax
(С)
R
(мм)
R24
(мм)
S
(см)
02 17.03 СЗ 5 н/о 10/10 600 м
[]
+31.1 +25.4 72 +45 +45 опасность
перегрева
1009.4 1007.8 +24.7
05 17.03 С 3 н/о в посл. час дождь со снегом {туман} 9/0
[]
+24.6 +23.7 95 +33 +33 очень
душно
1008.4 1006.8 45
08 17.03 В 2 н/о н/о +28.6 +25.6 84 +42 +42 опасность
перегрева
1007.3 1005.7
11 17.03 штиль 0 н/о {туман} н/о +26.1 +25.2 95 +38 +38 очень
душно
1009.0 1007.4 0.2
14 17.03 штиль 0 н/о н/о +24.8 +24.3 97 +34 +34 очень
душно
1009.8 1008.2 +31.7
17 17.03 В 2 н/о н/о +24.1 +23.8 98 +33 +33 очень
душно
1008.2 1006.6
20 17.03 штиль 0 н/о н/о +23.8 +23.5 98 +32 +32 очень
душно
1007.9 1006.3
23 17.03 штиль 0 н/о н/о +29.0 +26.6 87 +45 +45 опасность
перегрева
1009.8 1008.2 46
02 18.03 З 3 н/о 3/3 600 м
[]
+31.2 +25.3 71 +45 +45 опасность
перегрева
1008.6 1007.0 +23.6
05 18.03 З 4 н/о 6/6 600 м
[]
+32.2 +25.5 68 +47 +47 опасность
перегрева
1006.0 1004.4
08 18.03 Ю 4 н/о н/о +32.1 +25.7 69 +47 +47 опасность
перегрева
1005.1 1003.5
11 18.03 штиль 0 н/о н/о +27.9 +25.7 88 +41 +41 опасность
перегрева
1007.3 1005.7
14 18.03 штиль 0 н/о н/о +25.6 +24.7 95 +36 +36 очень
душно
1008.1 1006.5 +33.1
17 18.03 штиль 0 н/о н/о +24.5 +23.8 96 +33 +33 очень
душно
1006.6 1005.0
20 18.03 штиль 0 н/о н/о +23.9 +23.4 97 +32 +32 очень
душно
1006.3 1004.7
23 18.03 З 3 н/о 1/1 600 м
[]
+29.6 +26.6 84 +46 +46 опасность
перегрева
1008.1 1006.5
02 19.03 З 4 н/о н/о +32.4 +25.2 66 +46 +46 опасность
перегрева
1007.7 1006.1 +23.7
05 19.03 ЮЗ 4 н/о н/о +33.6 +23.6 56 +45 +45 опасность
перегрева
1004.8 1003.2
08 19.03 ЮЗ 3 н/о н/о +33.1 +23.1 56 +44 +44 опасность
перегрева
1004.4 1002.8
11 19.03 В 2 н/о н/о +27.1 +24.6 86 +38 +38 очень
душно
1006.5 1004.9
14 19.03 В 3 н/о 9/0
[]
+26.0 +24.0 89 +36 +36 очень
душно
1007.1 1005.5 +34.1
17 19.03 ЮВ 2 н/о 10/0
[]
+25.6 +24.2 92 +35 +35 очень
душно
1005.6 1004.0
20 19.03 В 2 н/о 9/0
[]
+25.9 +24.9 94 +37 +37 очень
душно
1005.6 1004.0
23 19.03 ЮЗ 2 н/о 6/0
[]
+31.1 +25.4 72 +45 +45 опасность
перегрева
1007.7 1006.1
02 20.03 Ю 4 н/о 1/1 1000 м
[]
+33.7 +25.7 63 +49 +49 опасность
перегрева
1006.6 1005.0 +25.5
05 20.03 Ю 4 н/о н/о +33.7 +24.8 60 +47 +47 опасность
перегрева
1004.4 1002.8
08 20.03 Ю 3 н/о н/о +32.1 +24.7 65 +45 +45 опасность
перегрева
1004.4 1002.8
11 20.03 В 2 н/о н/о +27.9 +25.5 87 +41 +41 опасность
перегрева
1005.9 1004.3
14 20.03 штиль 0 н/о н/о +26.6 +25.6 94 +39 +39 очень
душно
1007.0 1005.4 +34.3
17 20.03 штиль 0 н/о н/о +25.6 +24.7 95 +36 +36 очень
душно
1005.4 1003.8
20 20.03 штиль 0 н/о н/о +25.6 +24.9 96 +36 +36 очень
душно
1005.7 1004.1
23 20.03 ЮЗ 3 н/о 8/8 600 м
[]
+31.2 +25.3 71 +45 +45 опасность
перегрева
1007.0 1005.4
02 21.03 ЮЗ 4 н/о 8/8 600 м
[]
+32.4 +26.2 70 +49 +49 опасность
перегрева
1006.2 1004.6 +25.4
05 21.03 Ю 2 н/о {туман} 3/0
[]
+28.2 +25.0 83 +41 +41 опасность
перегрева
1003.8 1002.2 10
08 21.03 ЮВ 4 н/о н/о +30.8 +25.4 73 +45 +45 опасность
перегрева
1003.3 1001.7
11 21.03 штиль 0 н/о н/о +28.1 +24.5 81 +40 +40 очень
душно
1005.2 1003.6
14 21.03 штиль 0 н/о н/о +25.9 +24.5 92 +36 +36 очень
душно
1005.4 1003.8 +33.7
17 21.03 штиль 0 н/о н/о +25.0 +24.1 95 +34 +34 очень
душно
1004.4 1002.8
23 21.03 ЮЗ 4 н/о ливневой дождь 10/10 300 м
[]
+30.0 +26.2 80 +45 +45 опасность
перегрева
1005.0 1003.4 10
02 22.03 ЮЗ 6 н/о {туман} 5/5 600 м
[]
+31.2 +24.8 69 +44 +44 опасность
перегрева
1004.0 1002.4 +24.8
05 22.03 ЮЗ 5 н/о {туман} 6/6 1000 м
[]
+30.6 +24.0 68 +42 +42 опасность
перегрева
1001.7 1000.1 1
08 22.03 ЮВ 3 н/о в посл. час дождь со снегом 10/0
[]
+26.8 +24.3 86 +37 +37 очень
душно
1001.2 999.6
11 22.03 ЮЗ 5 н/о 10/0
[]
+31.1 +23.0 62 +41 +41 опасность
перегрева
1001.8 1000.2
14 22.03 ЮЗ 3 н/о 6/6 1500 м
[]
+30.2 +22.9 65 +40 +40 очень
душно
1002.2 1000.6 +31.5
17 22.03 ЮЗ 3 н/о ливневой дождь {туман} 10/10 600 м
[]
+27.7 +23.9 80 +38 +38 очень
душно
999.7 998.1 1
20 22.03 З 8 н/о {туман} 10/0 2000 м
[]
+29.2 +23.9 73 +40 +40 очень
душно
999.9 998.3
23 22.03 З 5 н/о {туман} 8/0 2000 м
[]
+28.1 +23.9 78 +39 +39 очень
душно
1002.4 1000.8 5
02 23.03 З 6 н/о 8/0 2000 м
[]
+29.8 +23.5 69 +40 +40 очень
душно
1002.9 1001.3 +25.0
05 23.03 СЗ 7 н/о н/о +31.5 +23.9 64 +43 +43 опасность
перегрева
1000.7 999.1
08 23.03 С 5 н/о н/о +31.4 +25.0 69 +45 +45 опасность
перегрева
1000.7 999.1
11 23.03 С 7 н/о 6/0
[]
+31.2 +26.2 75 +47 +47 опасность
перегрева
1001.7 1000.1
14 23.03 С 5 н/о в посл. час дождь со снегом {туман} 10/0
[]
+26.2 +24.2 89 +36 +36 очень
душно
1005.2 1003.6 +32.2
17 23.03 С 2 н/о {туман} 10/10 300 м
[]
+26.4 +25.7 96 +39 +39 очень
душно
1003.3 1001.7 6
20 23.03 СЗ 4 н/о 5/0
[]
+28.5 +25.5 84 +42 +42 опасность
перегрева
1005.5 1003.9
23 23.03 С 5 н/о 1/1 600 м
[]
+29.7 +24.6 74 +42 +42 опасность
перегрева
1007.1 1005.5 6

 

Местоположение метеостанции Аэропорт Грут-Айленд (Северная территория, Австралия): широта -13.98 долгота 136.47 высота над уровнем моря 16 м.

В архиве по умолчанию представлена погода в Аэропорту Грут-Айленд за последнюю неделю. Архивные данные за месяц целиком и за предыдущие месяцы, начиная с января 2011 года, Вы можете получить, выбрав интересующий диапазон дат из раскрывающегося списка и нажав кнопку "Ввод!".


*Определитесь, кто Вы:
робот инопланетянин человек

Внимание! Время в таблицах - всемирное. Для получения местного времени необходимо прибавить поправку, которая равна 9.5 ч.

Смотрите также архив погоды в соседних городах и на ближайших метеорологических станциях:

Погода на Острове Северо-восточный (Северная территория, Австралия) (62 км)
Погода в Аэропорту Гоув (Северная территория, Австралия) (193 км)
Погода на Острове Центр (Северная территория, Австралия) (200 км)
Погода в Булман Уимол (Северная территория, Австралия) (234 км)
Погода в Борролооле (Северная территория, Австралия) (234 км)
Погода в Галивинку (Северная территория, Австралия) (241 км)
Погода в Милинджимби (Северная территория, Австралия) (268 км)
Погода в Аэропорту Макартур Ривер Майн (Северная территория, Австралия) (276 км)
Погода в Манингриде (Северная территория, Австралия) (324 км)
Погода на Мысе Уэссел (Северная территория, Австралия) (332 км)

Пояснения к столбцам:

Ветер - указаны скорость ветра в м/с - средняя за 10 мин, порывы в срок и между сроками (в фигурных скобках) и направление, откуда дует ветер: С - северный, СВ - северо-восточный, В - восточный, ЮВ - юго-восточный, Ю - южный, ЮЗ - юго-западный, З - западный, СЗ - северо-западный.
Видимость - горизонтальная дальность видимости в метрах или километрах. При видимости от 1 до 10 км при отсутствии осадков обычно наблюдается дымка, при ухудшении видимости до 1 км и менее - туман. В сухую погоду видимость может ухудшаться дымом, пылью или мглою.
Явления - указаны атмосферные явления, наблюдавшиеся в срок или в последний час перед сроком; фигурными скобками обозначены явления, наблюдавшиеся между сроками (за 1-3 часа до срока); квадратными скобками обозначены град или гололедные отложения с указанием их диаметра в мм.
Облачность - указаны через наклонную черту общая и нижняя облачность в баллах и высота нижней границы облаков в метрах; квадратными скобками обозначены формы облаков: Ci - перистые, Cs - перисто-слоистые, Cc - перисто-кучевые, Ac - высококучевые, As - высокослоистые, Sc - слоисто-кучевые, Ns - слоисто-дождевые, Cu - кучевые, Cb - кучево-дождевые. Подробнее классификацию облаков см. в Атласе облаков (PDF).
T - Температура воздуха - температура, измеренная на высоте 2 м над землей.
Td - Температура точки росы - температура, при понижении до которой содержащийся в воздухе водяной пар достигнет насыщения.
f - Относительная влажность воздуха - влажноcть воздуха, измеренная на высоте 2 м над землей.
Te - Эффективная температура - температура, которую ощущает одетый по сезону человек в тени. Характеристика душности погоды. При расчете учитывается влияние влажности воздуха и скорости ветра на теплоощущения человека.
Tes - Эффективная температура на солнце - температура, которую ощущает человек, с поправкой на солнечный нагрев. Характеристика знойности погоды. Зависит от высоты солнца над горизонтом, облачности и скорости ветра. Ночью, в пасмурную погоду, а также при ветре 12 м/с и более поправка равна нулю.
P - Атмосферное давление - приведенное к уровню моря атмосферное давление.
Po - Атмосферное давление - измеренное на уровне метеостанции атмосферное давление.
Tmin - Минимальная температура - минимум температуры воздуха на высоте 2 м над землей.
Tmax - Максимальная температура - максимум температуры воздуха на высоте 2 м над землей.
R - Количество осадков - Количество выпавших осадков за период времени, мм. При наведении курсора мыши на число - период времени, за который выпало указанное количество осадков.
R24 - Количество осадков - Количество выпавших осадков за 24 часа, мм.
S - Снежный покров - Высота снежного покрова, см. При наведении курсора мыши на число - состояние снежного покрова и степень покрытия местности в баллах.